Terminal Aerodrome Forecast
Issued by NWS Billings, MT

Home | Current Version | Previous Version | Text Only | Print | Product List | Glossary On
Versions: 1 2 3 4 5 6 7 8 9 10 11 12 13 14 15 16 17 18 19 20 21
000
FTUS45 KBYZ 281128
TAFBIL
TAF
KBIL 281128Z 2812/2912 23008KT P6SM FEW100 SCT250
     FM281800 28012G18KT P6SM SCT060 BKN100
     FM282000 28012G18KT P6SM VCTS SCT080CB BKN100
     FM290200 23013KT P6SM VCSH SCT100 BKN120=

USA.gov is the U.S. government's official web portal to all federal, state and local government web resources and services.